Погода в Вологде

Погода в Вологде : погода сейчас, прогноз погоды и архив. Всё, что Вы хотите узнать о погоде в Вологде!

Хотите узнать прогноз погоды в Вологде? Тогда Вам сюда: Погода в Вологде

Поиск расширенной информации на нашем сайте:

Другие новости

Новости СМИ2

Главная страница сайта

Новости сайта

02.10.2013

Напоминаем, что на нашем новом сайте вы можете получить высокодетализированные прогнозы погоды по пунктам России, СНГ и мира (включающие важные для авиации метеовеличины, такие как направление и скорость ветра, видимость, явления погоды, количество и форма облачности, нижняя и верхняя граница облачности), а также ознакомиться с разнообразными материалами по авиационной метеорологии и подборкой полезных ссылок на эту тему.

Сайт Метеоцентр.Азия посвящён разработке технологий оптимизации авиаметеорологического обслуживания, включая проектирование и перспективное создание нескольких автоматизированных авиаметеорологических систем:
- система выпуска высокодетальных прогностических карт явлений погоды для нижнего воздушного пространства по России и ближнему зарубежью;
- система верификации прогнозов TAF (выпускаемых синоптиками официальных АМСГ РФ и ближнего зарубежья) и AUTOTAF (выпускаемых сайтом Метеоцентр.Азия) - выявление ошибок, онлайн-сопоставление с фактической погодой METAR, автоматическое внесение коррективов в прогнозы при резком отклонении фактической погоды от прогноза, подсчёт оправдываемости прогнозов по элементам и в целом;
- система обработки, анализа и отображения авиаметеорологической информации для применения провайдерами метеорологической информации.

Рекомендуем: эмалировка ванн

Погода в Вологде - сегодня

Время (UTC), дата Ветер
(°,м/с) 
Видим.   Явления Облачность Т
(°С)
Тd
(°С)
f(%) Тe
(°С)
Pmin
(гПа)
dP
(гПа)
Po
(мм)
O2
(г/м3)
Тmin Tmax R s Состояние
почвы
09 22.03.17 190 (Ю) 20000 м  {снег, дождь}  10/10 450 м 
[Sc]
+3.2 +0.3 81 +1  1014.6  0.4  749  298           
12 22.03.17 190 (Ю) 20000 м  {снег, дождь}  9/4 600 м средняя 
[Sc|Ac trans]
+5.1 +0.4 72 +3  1013.7  -0.8  748  296           
15 22.03.17 170 (Ю) 20000 м    10/10 420 м 
[Sc]
+5.7 +0.6 70 +5  1012.6  -1.1  747  295    +6.6  0.0     
18 22.03.17 170 (Ю) 10 км  слаб. дождь  10/10 270 м 
[Sc]
+4.3 +1.5 82 +3  1012  -0.7  747  296           
21 22.03.17 270 (З) 10 км  слаб. дождь  10/8 300 м средняя 
[Frnb|As op]
+3.4 +1.9 90 +3  1012.2  0.2  747  297           
00 23.03.17 240 (ЮЗ) 20000 м  {дождь}  10/10 400 м 
[Sc]
+0.9 +0.1 94 +2  1013.1  0.8  748  300           
03 23.03.17 230 (ЮЗ) 20000 м    10/10 330 м 
[Sc]
+0.5 -0.3 94 -1  1013.5  0.3  748  301  +0.1    19  равномерный
мокрый или
старый снег
100% 
06 23.03.17 230 (ЮЗ) 20000 м    9/9 660 м 
[Sc]
+1.8 +0.2 89 -1  1013.8  0.4  748  299           
09 23.03.17 240 (ЮЗ) 20000 м    9/9 420 м 
[Sc]
+3.3 -0.2 78 +2  1014.4  0.7  749  298           
12 23.03.17 240 (ЮЗ) 20000 м    10/10 600 м 
[Sc]
+4 -1.9 65 +4  1014.9  0.5  749  298           
15 23.03.17 230 (ЮЗ) 20000 м    8/4 600 м верхняя 
[Sc|Ci fib]
+3.5 -1.8 68 +3  1015.1  0.2  749  298    +5.2       
18 23.03.17 240 (ЮЗ) 20000 м  {дождь}  3/3 2000 м средняя 
[Ac trans]
+0.9 -0.5 90 1016.3  750  301           
21 23.03.17 250 (З) 20000 м    3/3 2000 м средняя 
[Ac trans]
+0.4 -1.3 88 1017.6  1.3  751  302           
00 24.03.17 240 (ЮЗ) 20000 м    ясно 
-0.9 -2.4 90 -3  1017.3  -0.4  751  304           
03 24.03.17 240 (ЮЗ) 20000 м    3/3 2000 м средняя 
[Ac trans]
-2.4 -4 89 -4  1017.4  751  306  -2.4    15  равномерный
мокрый или
старый снег
100% 
06 24.03.17 210 (ЮЗ) 20000 м    8/3 1000 м средняя 
[Sc|Ac trans]
+0.8 -3.7 72 1015.5  -1.6  749  301  -3.4         
09 24.03.17 230 (ЮЗ) 20000 м    9/8 1000 м верхняя 
[Sc|Ci fib]
+4.1 -3.2 59 +3  1013.2  -2.2  748  297           
12 24.03.17 230 (ЮЗ) 20000 м    9/9 600 м 
[Sc]
+2.1 -3.4 67 +1  1011.7  -1.6  747  299           
15 24.03.17 300 (СЗ) 20000 м    6/6 1000 м 
[Sc]
+1.4 -6.5 56 +1  1011.5  -0.2  746  300    +4.3       
18 24.03.17 280 (З) 20000 м    3/3 600 м 
[Sc]
-1.2 -9.2 54 -2  1011.8  0.3  747  303           
21 24.03.17 290 (З) 20000 м    3/3 600 м 
[Sc]
-4.2 -6.8 82 -5  1011.6  -0.5  746  306           
00 25.03.17 280 (З) 20000 м    ясно 
-5.9 -7 92 -7  1011.1  -0.7  746  308           
03 25.03.17 270 (З) 20000 м  снежные кристаллы  10/10 720 м 
[Sc]
-2.9 -4.6 88 -4  1010.1  -0.8  745  304  -7.5    0.0  14  равномерный
сухой снег
100% 
06 25.03.17 290 (З) 4000 м  снег  10/8 270 м средняя 
[Frnb|As trans]
-1.8 -3.2 90 -3  1009.3  -0.6  745  302           
09 25.03.17 310 (СЗ) 5{10}  10 км  слаб. снег  10/8 300 м средняя 
[Frnb|As trans]
-0.1 -2.4 84 -3  1009.3  745  300           
Время (UTC), дата Ветер
(°,м/с) 
Видим.   Явления Облачность Т
(°С)
Тd
(°С)
f(%) Тe
(°С)
Pmin
(гПа)
dP
(гПа)
Po
(мм)
O2
(г/м3)
Тmin Tmax R s Состояние
почвы

Для получения пояснительной информации подведите курсор к названию столбца.

ПОГОДА в Вологде - архив

Всё, что Вы хотите узнать о погоде в Вологде - удобно и подробно!

Выберите нужную дату (начиная с 1 января 2015* года) и нажмите кнопку "Найти".
Будут отображены архивные сводки погоды по пункту Вологда, начиная с указанной даты.


Отображать данные в формате CSV (для использования в таблицах Excel)


Внимание! Наш архив погоды предназначен исключительно для личного некоммерческого использования в познавательных целях. Если Вам необходимы официальные справки о состоянии погоды (для производственных, юридических, коммерческих и т.п. целей), обращайтесь в органы Росгидромета.

*Примечание: данная дата относится к архиву по метеостанциям СССР (Россия, СНГ, Балтия).
Архив по метеостанциям Зарубежной Европы и Азии (кроме Китая) хранится 10 дней, по другим регионам земного шара (Китай, Африка, Америка, Австралия, Океания) - 1 день.

Вологда - район местоположения метеостанции


Название, широта, долгота, высота метеостанции:
Вологда (город) 59.3°ш. 39.9°д. 130 м над ур. моря [Российская Федерация]

Дополнительная информация

В oтличие oт бoльшинства пoгoдных сайтoв мы публикуем пoдрoбную метеoинфoрмацию в детальнoм прoфессиoнальнoм фoрмате.

Характеристики температуры и влажнoсти вoздуха измеряются на высoте 2 м в тени вдали oт зданий и деревьев.
Скoрoсть ветра измеряется на высoте 10 м (на урoвне рoста челoвека скoрoсть ветра ниже в 1.5-2 раза). Если метеoстанция нахoдится в гoрoде или в лесу, тo скoрoсть ветра занижена на 2-4 м/с пo сравнению с oткрытым местoм. Скoрoсть ветра над акватoриями крупных рек и oзёр, а также на вершинах хoлмoв на 2-5 м/с выше, чем в oбычных услoвиях.
Атмoсфернoе давление в разных тoчках местнoсти мoжет значительнo oтличаться oт давления на метеoстанции, в зависимoсти oт услoвий рельефа (при пoдъёме на 10 м давление пoнижается примернo на 1 мм рт.ст.).